GW6248 Weather Reports


time (UTC)temp
C
wind
direction
speed
KPH
gust
KPH
rain 1hr
cm
rain 24hr
cm
rain mn
cm
humidity
%
barometer
mb
20260502233503 11 27 0.0 1.6 0.05 0.28 0.03 98 1010.7
20260502233003 11 17 0.0 1.6 0.03 0.28 0.00 98 1010.6
20260502232718 11 17 0.0 1.6 0.03 0.28 0.00 98 1010.6
20260502232003 11 31 0.0 1.6 0.05 0.28 0.00 98 1010.5
20260502231503 11 0 0.0 0.0 0.05 0.28 0.00 98 1010.6
20260502231003 11 0 0.0 0.0 0.05 0.25 0.00 98 1010.4
20260502230503 11 0 0.0 0.0 0.05 0.25 0.00 98 1010.5
20260502230003 11 43 0.0 1.6 0.05 0.25 0.00 98 1010.6
20260502225503 11 42 0.0 1.6 0.05 0.25 0.25 98 1010.6
20260502225217 11 40 0.0 1.6 0.05 0.25 0.25 98 1010.6
20260502224503 11 39 0.0 1.6 0.05 0.25 0.25 98 1010.7
20260502224217 11 47 0.0 1.6 0.05 0.25 0.25 98 1010.6
20260502223503 11 47 0.0 1.6 0.05 0.23 0.23 98 1010.8
20260502223217 11 0 0.0 0.0 0.05 0.23 0.23 98 1010.6
20260502222503 11 29 0.0 1.6 0.05 0.23 0.23 98 1010.8
20260502222003 11 25 0.0 1.6 0.05 0.23 0.23 98 1010.8
20260502221503 11 23 0.0 1.6 0.05 0.23 0.23 98 1010.8
20260502221216 11 12 0.0 1.6 0.05 0.23 0.23 98 1010.8
20260502220503 11 358 0.0 1.6 0.05 0.23 0.23 98 1010.6
20260502220003 11 0 0.0 0.0 0.05 0.20 0.20 98 1010.8
20260502215503 11 0 0.0 0.0 0.05 0.20 0.20 98 1010.8
20260502215003 11 0 0.0 0.0 0.05 0.20 0.20 98 1010.9
20260502214503 11 0 0.0 0.0 0.05 0.20 0.20 98 1011.0
20260502214003 11 348 0.0 1.6 0.05 0.20 0.20 98 1011.0
20260502213503 11 342 0.0 1.6 0.05 0.20 0.20 97 1011.1
20260502213218 11 342 0.0 1.6 0.05 0.18 0.18 97 1011.0
20260502212503 11 0 0.0 0.0 0.05 0.18 0.18 97 1011.1
20260502212004 11 0 0.0 0.0 0.05 0.18 0.18 97 1010.9
20260502211503 11 37 0.0 1.6 0.05 0.18 0.18 97 1011.0
20260502211003 11 37 0.0 1.6 0.05 0.18 0.18 97 1011.1
20260502210503 11 0 0.0 0.0 0.05 0.15 0.15 97 1011.0
20260502210218 11 32 0.0 1.6 0.05 0.15 0.15 97 1011.2
20260502205503 11 32 0.0 1.6 0.05 0.15 0.15 97 1010.9
20260502205003 11 353 0.0 1.6 0.05 0.15 0.15 97 1011.1
20260502204717 11 353 0.0 1.6 0.05 0.15 0.15 97 1011.2
20260502204003 11 13 0.0 1.6 0.05 0.15 0.15 97 1011.2
20260502203503 11 353 0.0 1.6 0.05 0.15 0.15 97 1011.0
20260502203218 11 349 0.0 1.6 0.05 0.13 0.13 97 1011.2
20260502202503 11 20 0.0 1.6 0.05 0.13 0.13 97 1011.1
20260502202218 11 27 0.0 1.6 0.05 0.13 0.13 96 1011.1
20260502201503 11 341 0.0 1.6 0.05 0.13 0.13 96 1011.3
20260502201003 11 335 0.0 1.6 0.05 0.13 0.13 96 1011.2
20260502200717 11 335 0.0 1.6 0.05 0.13 0.13 96 1011.3
20260502200004 11 334 0.0 3.2 0.05 0.10 0.10 96 1011.5
20260502195503 11 329 0.0 3.2 0.05 0.10 0.10 96 1011.6
20260502195003 11 330 1.6 3.2 0.05 0.10 0.10 96 1011.3
20260502194503 11 334 1.6 3.2 0.05 0.10 0.10 96 1011.3
20260502194003 11 332 1.6 3.2 0.05 0.10 0.10 96 1011.3
20260502193503 11 334 0.0 3.2 0.05 0.10 0.10 95 1011.2
20260502193003 11 337 1.6 3.2 0.08 0.10 0.10 95 1011.5
20260502192503 11 337 1.6 3.2 0.08 0.08 0.08 95 1011.2
20260502192217 11 340 0.0 3.2 0.08 0.08 0.08 95 1011.4
20260502191503 11 332 0.0 3.2 0.05 0.08 0.08 95 1011.5
20260502191003 11 329 0.0 3.2 0.05 0.05 0.05 95 1011.3
20260502190503 11 2 0.0 1.6 0.05 0.05 0.05 95 1011.6
20260502190003 11 16 0.0 1.6 0.05 0.05 0.05 94 1011.7
20260502185503 11 10 0.0 1.6 0.05 0.05 0.05 94 1011.4
20260502185003 11 360 0.0 1.6 0.05 0.05 0.05 94 1011.7
20260502184503 11 348 0.0 1.6 0.05 0.05 0.05 93 1011.7
20260502184217 11 348 0.0 1.6 0.05 0.05 0.05 93 1011.4
20260502183503 11 348 0.0 1.6 0.05 0.05 0.05 93 1011.6
20260502183003 11 356 0.0 3.2 0.00 0.00 0.00 92 1011.6
20260502182503 11 3 0.0 3.2 0.00 0.00 0.00 92 1011.5
20260502182003 12 9 0.0 3.2 0.00 0.00 0.00 91 1011.4
20260502181503 12 11 0.0 3.2 0.00 0.00 0.00 91 1011.7
20260502181003 12 15 0.0 3.2 0.00 0.00 0.00 90 1011.6
20260502180503 12 20 0.0 3.2 0.00 0.00 0.00 88 1011.7
20260502170503 14 351 0.0 3.2 0.00 0.00 0.00 75 1011.6
20260502170216 14 352 0.0 3.2 0.00 0.00 0.00 74 1011.7
20260502164218 14 352 1.6 3.2 0.00 0.00 0.00 73 1011.7
20260502163503 14 352 1.6 3.2 0.00 0.00 0.00 72 1012.0
20260502163003 14 351 1.6 3.2 0.00 0.00 0.00 73 1011.8
20260502162503 15 343 1.6 3.2 0.00 0.00 0.00 70 1011.8
20260502162003 15 331 1.6 3.2 0.00 0.00 0.00 69 1011.9
20260502161503 15 320 0.0 3.2 0.00 0.00 0.00 70 1011.9
20260502161003 15 257 0.0 3.2 0.00 0.00 0.00 70 1011.9
20260502160503 15 167 1.6 4.8 0.00 0.00 0.00 68 1012.0
20260502152003 15 178 3.2 8.0 0.00 0.00 0.00 65 1012.5
20260502151503 15 185 3.2 8.0 0.00 0.00 0.00 63 1012.5
20260502151003 15 151 3.2 8.0 0.00 0.00 0.00 64 1012.7
20260502150503 16 145 3.2 6.4 0.00 0.00 0.00 62 1012.7
20260502130503 17 150 6.4 12.9 0.00 0.00 0.00 59 1013.7
20260502123503 17 108 4.8 9.7 0.00 0.00 0.00 60 1014.2
20260502123003 17 118 4.8 11.3 0.00 0.03 0.00 59 1014.0
20260502122503 16 138 6.4 11.3 0.00 0.05 0.00 59 1014.1
20260502122003 16 138 6.4 12.9 0.00 0.08 0.00 58 1014.5
20260502121503 16 143 4.8 12.9 0.00 0.08 0.00 60 1014.3
20260502121003 16 155 4.8 12.9 0.00 0.08 0.00 63 1014.5
20260502120503 16 167 6.4 14.5 0.00 0.10 0.00 63 1014.5
20260502115503 16 122 4.8 11.3 0.00 0.10 0.00 63 1014.8
20260502115216 16 135 4.8 9.7 0.00 0.10 0.00 62 1015.0
20260502114503 16 143 4.8 11.3 0.00 0.10 0.00 65 1014.9
20260502114003 15 137 4.8 11.3 0.00 0.10 0.00 66 1015.1
20260502113503 15 133 4.8 14.5 0.00 0.10 0.00 67 1015.2
20260502113003 15 114 4.8 14.5 0.00 0.10 0.00 68 1015.2
20260502112503 15 95 3.2 9.7 0.00 0.10 0.00 70 1015.4
20260502112003 14 93 4.8 9.7 0.00 0.10 0.00 71 1015.3
20260502111503 15 128 3.2 8.0 0.00 0.10 0.00 72 1015.4
20260502111003 14 157 3.2 8.0 0.00 0.10 0.00 71 1015.4
20260502110503 13 121 3.2 6.4 0.00 0.10 0.00 71 1015.5
20260502110003 14 139 3.2 6.4 0.00 0.13 0.00 73 1015.4
20260502105717 14 162 3.2 6.4 0.00 0.13 0.00 72 1015.6
20260502105219 15 174 3.2 6.4 0.00 0.15 0.00 69 1015.6
20260502104503 14 193 3.2 8.0 0.00 0.15 0.00 70 1015.3
20260502104003 13 189 3.2 8.0 0.00 0.18 0.00 72 1015.4
20260502103503 13 179 3.2 6.4 0.00 0.18 0.00 71 1015.4
20260502103003 13 172 1.6 6.4 0.00 0.18 0.00 72 1015.5
20260502102503 13 170 1.6 6.4 0.00 0.18 0.00 73 1015.6
20260502102218 13 168 1.6 6.4 0.00 0.20 0.00 75 1015.3
20260502101503 13 185 1.6 6.4 0.00 0.25 0.00 75 1015.3
20260502101003 13 182 1.6 6.4 0.00 0.33 0.00 76 1015.6
20260502100503 13 205 1.6 6.4 0.00 0.38 0.00 76 1015.4
20260502091503 12 28 1.6 3.2 0.00 0.56 0.00 95 1016.2
20260502091003 11 22 1.6 3.2 0.00 0.56 0.00 95 1016.2
20260502090503 11 19 1.6 3.2 0.00 0.56 0.00 96 1016.4
20260502071503 10 30 0.0 1.6 0.00 0.56 0.00 99 1016.4
20260502071003 10 39 0.0 1.6 0.00 0.56 0.00 99 1016.4
20260502070503 10 40 0.0 3.2 0.00 0.56 0.00 99 1016.7
20260502070003 10 35 0.0 3.2 0.00 0.56 0.00 99 1016.4
20260502065718 10 34 0.0 1.6 0.00 0.56 0.00 99 1016.6
20260502065217 10 36 0.0 1.6 0.00 0.56 0.00 99 1016.3
20260502064503 10 45 0.0 1.6 0.00 0.56 0.00 99 1016.3
20260502064003 10 40 0.0 3.2 0.00 0.56 0.00 99 1016.6
20260502063503 10 41 0.0 3.2 0.00 0.56 0.00 99 1016.5
20260502063216 10 43 0.0 1.6 0.00 0.56 0.00 99 1016.5
20260502062503 10 33 0.0 1.6 0.00 0.56 0.00 99 1016.6
20260502062217 10 32 0.0 1.6 0.00 0.56 0.00 99 1016.3
20260502061503 10 11 0.0 1.6 0.00 0.56 0.00 99 1016.7
20260502061003 10 7 0.0 1.6 0.00 0.56 0.00 99 1016.5
20260502060503 10 37 0.0 3.2 0.00 0.56 0.00 99 1016.5
20260502060004 10 38 0.0 3.2 0.00 0.56 0.00 99 1016.4
20260502055503 10 38 0.0 3.2 0.00 0.56 0.00 99 1016.3
20260502055003 10 22 0.0 1.6 0.00 0.56 0.00 99 1016.3
20260502054503 10 15 0.0 1.6 0.00 0.56 0.00 99 1016.4
20260502054003 10 24 0.0 1.6 0.00 0.56 0.00 99 1016.2
20260502053503 10 29 0.0 1.6 0.00 0.56 0.00 99 1016.3
20260502053003 10 11 0.0 1.6 0.00 0.56 0.00 99 1016.2
20260502052503 10 8 0.0 1.6 0.00 0.56 0.00 99 1016.5
20260502052003 10 7 0.0 1.6 0.00 0.56 0.00 99 1016.3
20260502051503 10 8 0.0 1.6 0.00 0.56 0.00 99 1016.2
20260502051218 10 12 0.0 1.6 0.00 0.56 0.00 99 1016.1
20260502050503 10 339 0.0 1.6 0.00 0.56 0.00 99 1016.4
20260502050003 10 333 0.0 1.6 0.00 0.58 0.00 99 1016.4
20260502045717 10 3 0.0 1.6 0.00 0.61 0.00 99 1016.6
20260502045003 10 358 0.0 1.6 0.00 0.61 0.00 99 1016.5
20260502044504 10 4 0.0 3.2 0.00 0.61 0.00 99 1016.4
20260502044003 10 22 0.0 3.2 0.00 0.61 0.00 99 1016.7
20260502043503 10 11 0.0 1.6 0.00 0.61 0.00 99 1016.6
20260502043003 10 24 0.0 1.6 0.00 0.61 0.00 99 1016.5
20260502042717 10 30 0.0 1.6 0.00 0.61 0.00 99 1016.5
20260502042218 10 30 0.0 1.6 0.00 0.61 0.00 99 1016.5
20260502041503 10 32 0.0 1.6 0.00 0.61 0.00 99 1016.7
20260502041003 10 36 0.0 1.6 0.00 0.61 0.00 99 1016.7
20260502040503 10 32 0.0 1.6 0.00 0.61 0.00 99 1016.7
20260502040004 10 11 0.0 1.6 0.00 0.61 0.00 99 1016.6
20260502035503 10 8 0.0 1.6 0.00 0.61 0.00 99 1016.8
20260502035003 10 41 0.0 3.2 0.00 0.61 0.00 99 1016.6
20260502034503 10 48 0.0 3.2 0.00 0.61 0.00 99 1016.7
20260502034003 10 31 0.0 1.6 0.00 0.61 0.00 99 1016.7
20260502033503 10 30 0.0 1.6 0.00 0.61 0.00 99 1016.6
20260502033217 10 40 0.0 3.2 0.00 0.61 0.00 99 1016.9
20260502032503 10 22 0.0 3.2 0.00 0.61 0.00 99 1016.8
20260502032003 10 26 0.0 3.2 0.00 0.61 0.00 99 1016.9
20260502031718 10 32 0.0 1.6 0.00 0.61 0.00 99 1016.9
20260502031217 10 39 0.0 3.2 0.00 0.61 0.00 99 1017.1
20260502030503 10 38 0.0 3.2 0.00 0.61 0.00 99 1017.1
20260502030003 10 37 1.6 3.2 0.00 0.61 0.00 99 1016.9
20260502025503 10 33 0.0 3.2 0.00 0.61 0.00 99 1017.0
20260502025003 10 15 0.0 3.2 0.00 0.61 0.00 99 1017.2
20260502024503 9 16 0.0 3.2 0.00 0.61 0.00 99 1017.4
20260502024003 9 15 0.0 1.6 0.00 0.61 0.00 99 1017.1
20260502023718 9 18 0.0 1.6 0.00 0.61 0.00 99 1017.3
20260502023003 9 28 0.0 3.2 0.00 0.61 0.00 99 1017.4
20260502022504 9 26 0.0 3.2 0.00 0.61 0.00 99 1017.5
20260502022003 9 15 0.0 1.6 0.00 0.61 0.00 99 1017.7
20260502021503 9 9 0.0 3.2 0.00 0.61 0.00 99 1017.3
20260502021003 9 345 0.0 3.2 0.00 0.61 0.00 99 1017.7
20260502020503 9 340 0.0 1.6 0.00 0.61 0.00 99 1017.8
20260502020003 9 24 0.0 1.6 0.00 0.61 0.00 99 1017.6
20260502015503 9 15 0.0 1.6 0.00 0.61 0.00 99 1017.8
20260502015217 9 350 0.0 1.6 0.00 0.61 0.00 99 1017.7
20260502014718 9 10 0.0 1.6 0.00 0.61 0.00 99 1017.8
20260502014003 9 347 0.0 1.6 0.00 0.61 0.00 99 1017.8
20260502013718 9 7 0.0 1.6 0.00 0.61 0.00 99 1018.0
20260502013003 9 26 0.0 1.6 0.00 0.61 0.00 99 1018.0
20260502012503 9 23 0.0 1.6 0.00 0.61 0.00 99 1018.1
20260502012216 9 25 0.0 3.2 0.00 0.61 0.00 99 1017.9
20260502011503 9 22 0.0 3.2 0.00 0.61 0.00 99 1018.0
20260502011003 9 11 0.0 1.6 0.00 0.61 0.00 99 1018.1
20260502010503 9 19 0.0 1.6 0.00 0.61 0.00 99 1018.1
20260502010003 9 7 0.0 1.6 0.00 0.61 0.00 99 1018.1
20260502005503 9 1 0.0 1.6 0.00 0.61 0.00 99 1018.2
20260502005003 9 20 0.0 1.6 0.00 0.61 0.00 99 1018.3
20260502004503 9 30 0.0 1.6 0.00 0.61 0.00 99 1018.3
20260502004003 9 320 0.0 1.6 0.00 0.61 0.00 99 1018.4
20260502003503 9 330 0.0 1.6 0.00 0.61 0.00 99 1018.6
20260502003003 9 15 0.0 1.6 0.00 0.61 0.00 99 1018.4
20260502002717 9 15 0.0 1.6 0.00 0.61 0.00 99 1018.4
20260502002003 9 24 0.0 3.2 0.00 0.61 0.00 99 1018.7
20260502001503 9 21 0.0 1.6 0.00 0.61 0.00 99 1018.5
20260502001218 9 21 0.0 1.6 0.00 0.61 0.00 99 1018.7
20260502000503 9 14 0.0 3.2 0.00 0.61 0.00 99 1018.8
20260502000218 9 27 0.0 3.2 0.00 0.61 0.00 99 1018.7
20260501235503 9 31 0.0 3.2 0.00 0.61 0.00 99 1018.6
20260501235003 9 33 0.0 1.6 0.00 0.61 0.00 99 1018.6
20260501234503 9 37 0.0 3.2 0.00 0.61 0.00 99 1018.7
20260501234218 9 34 0.0 3.2 0.00 0.61 0.00 99 1018.8